Home > Weather > Corrientes > Past weeks

Flag for Argentina Past Weather in Corrientes, Corrientes, Argentina — Yesterday and Last 2 Weeks

Now
50 °F

Mostly cloudy.


Feels Like: 48 °F
Forecast: 46 / 51 °F
Wind: 5 mph from Southwest

Location: Resistencia Aero.

Current Time: Jun 27, 2016 at 5:23:05 PM

Latest Report: Jun 27, 2016 at 5:00 PM


Visibility: N/A

Pressure: 30.27 "Hg

Humidity: 88%

Dew Point: 46 °F

Location of CorrientesLocation

Past Weather in Corrientes — Graph

°F

Corrientes Temperature Yesterday

Maximum temperature yesterday: 59 °F (at 12:00 AM)
Minimum temperature yesterday: 50 °F (at 10:00 PM)
Average temperature yesterday: 54 °F

High & Low Weather Summary for the Past Weeks

 TemperatureHumidityPressure
High73 °F (Jun 14, 2:00 PM)100% (Jun 13, 5:00 AM)30.36 "Hg (Jun 13, 5:00 AM)
Low32 °F (Jun 13, 5:00 AM)30% (Jun 13, 1:00 PM)29.89 "Hg (Jun 25, 4:00 PM)
Average53 °F81%30.18 "Hg
* Reported Jun 12 4:00 PM — Jun 27 4:00 PM, Corrientes, Weather by CustomWeather, © 2016

Note: Actual official high and low records may vary slightly from our data, if they occured in-between our weather recording intervals... More about our weather records

Advertising

Corrientes Weather History for the Previous 24 Hours

Scroll right to see more
 ConditionsComfort  
Time TempWeatherWind HumidityBarometerVisibility
4:00 PM
Mon, Jun 27
50 °FCloudy.6 mph94%30.27 "HgN/A
3:00 PM50 °FMore clouds than sun.5 mph88%30.27 "HgN/A
1:00 PM48 °FLight rain. Mostly cloudy.3 mph94%30.27 "Hg5 mi
12:00 PM48 °FRain. Mostly cloudy.5 mph94%30.33 "Hg2 mi
11:00 AM48 °FRain. Mostly cloudy.6 mph94%30.33 "Hg2 mi
10:00 AM46 °FRain. Mostly cloudy.6 mph100%30.33 "Hg2 mi
9:00 AM46 °FRain. Mostly cloudy.2 mph100%30.30 "Hg2 mi
8:00 AM46 °FRain. Mostly cloudy.6 mph100%30.27 "Hg1 mi
7:00 AM46 °FRain. Mostly cloudy.5 mph100%30.27 "Hg2 mi
6:00 AM46 °FRain. Mostly cloudy.3 mph100%30.24 "Hg1 mi
5:00 AM48 °FThunderstorms. Mostly cloudy.5 mph94%30.24 "Hg2 mi
4:00 AM48 °FThunderstorms. Mostly cloudy.9 mph100%N/A2 mi
3:00 AM48 °FThunderstorms. Mostly cloudy.8 mph100%30.24 "Hg2 mi
2:00 AM48 °FThunderstorms. Mostly cloudy.6 mph100%30.24 "Hg2 mi
1:00 AM48 °FThunderstorms. Mostly cloudy.7 mph100%30.21 "Hg2 mi
12:00 AM50 °FMostly cloudy.7 mph94%30.21 "Hg3 mi
11:00 PM
Sun, Jun 26
50 °FThunderstorms. Mostly cloudy.8 mph100%30.24 "Hg3 mi
10:00 PM50 °FThunderstorms. Mostly cloudy.5 mph100%30.21 "Hg2 mi
9:00 PM52 °FThunderstorms. Mostly cloudy.7 mph94%30.21 "Hg2 mi
8:00 PM52 °FThunderstorms. Mostly cloudy.5 mph94%30.18 "Hg2 mi
7:00 PM52 °FThunderstorms. Mostly cloudy.8 mph94%30.18 "Hg2 mi
6:00 PM52 °FThunderstorms. Mostly cloudy.9 mph100%30.21 "Hg1 mi
5:00 PM54 °FThunderstorms. Mostly cloudy.6 mph94%30.15 "Hg1 mi
Weather by CustomWeather, © 2016

See weather overviewHow to use our weather pages